Independence Lake Weather Center

Moon Phase Calendar



Independence Lake Water Level
Online Cameras

 


      

Current Conditions in Truckee
8/2/2021 10:27:14 PM

63°F
Feels Like 60
Clear
Humidity
39%
Pressure
30.36"
Wind
0
Dew Point
37°F
UV Index
0/10 (Low)
Visibility
6 mi

Hourly Forecast

Date & Time Mon, Aug 2
10:00 PM
Mon, Aug 2
11:00 PM
Tue, Aug 3
12:00 AM
Tue, Aug 3
1:00 AM
Tue, Aug 3
2:00 AM
Tue, Aug 3
3:00 AM
Tue, Aug 3
4:00 AM
Tue, Aug 3
5:00 AM
Tue, Aug 3
6:00 AM
Tue, Aug 3
7:00 AM
Tue, Aug 3
8:00 AM
Tue, Aug 3
9:00 AM
Tue, Aug 3
10:00 AM
Tue, Aug 3
11:00 AM
Tue, Aug 3
12:00 PM
Tue, Aug 3
1:00 PM
Tue, Aug 3
2:00 PM
Tue, Aug 3
3:00 PM
Tue, Aug 3
4:00 PM
Tue, Aug 3
5:00 PM
Tue, Aug 3
6:00 PM
Tue, Aug 3
7:00 PM
Tue, Aug 3
8:00 PM
Tue, Aug 3
9:00 PM
Tue, Aug 3
10:00 PM
Tue, Aug 3
11:00 PM
Wed, Aug 4
12:00 AM
Wed, Aug 4
1:00 AM
Wed, Aug 4
2:00 AM
Wed, Aug 4
3:00 AM
Wed, Aug 4
4:00 AM
Wed, Aug 4
5:00 AM
Wed, Aug 4
6:00 AM
Wed, Aug 4
7:00 AM
Wed, Aug 4
8:00 AM
Wed, Aug 4
9:00 AM
Wed, Aug 4
10:00 AM
Wed, Aug 4
11:00 AM
Wed, Aug 4
12:00 PM
Wed, Aug 4
1:00 PM
Wed, Aug 4
2:00 PM
Wed, Aug 4
3:00 PM
Wed, Aug 4
4:00 PM
Wed, Aug 4
5:00 PM
Wed, Aug 4
6:00 PM
Wed, Aug 4
7:00 PM
Wed, Aug 4
8:00 PM
Wed, Aug 4
9:00 PM
Condition
Clear

Clouds

Clouds

Clouds

Clouds

Clouds

Clouds

Clouds

Clear

Clear

Clear

Clear

Clear

Clear

Clear

Clear

Clear

Clear

Clear

Clear

Clear

Clear

Clear

Clear

Clear

Clear

Clear

Clear

Clear

Clear

Clear

Clear

Clear

Clear

Clear

Clear

Clear

Clear

Clear

Clear

Clear

Clear

Clear

Clear

Clear

Clear

Clear

Clear
Temperature 63°F61°F60°F58°F57°F56°F56°F56°F55°F59°F69°F76°F79°F82°F83°F84°F84°F84°F83°F81°F78°F74°F63°F59°F58°F57°F57°F57°F57°F56°F56°F56°F56°F59°F69°F76°F79°F81°F83°F84°F84°F83°F82°F80°F77°F73°F62°F57°F
Feels Like 60°F59°F57°F56°F54°F52°F52°F52°F52°F56°F67°F74°F79°F80°F80°F81°F81°F81°F80°F79°F76°F72°F60°F55°F54°F54°F54°F54°F53°F53°F52°F52°F52°F56°F67°F73°F77°F79°F80°F81°F81°F80°F80°F78°F76°F71°F60°F54°F
Cloudiness 1%17%25%22%22%27%23%20%5%6%7%7%7%7%0%0%0%0%0%0%0%0%0%0%0%0%0%1%3%3%2%2%0%0%0%0%0%0%0%0%0%0%0%0%2%5%5%6%
Visibility 6 mi6 mi6 mi6 mi6 mi6 mi6 mi6 mi6 mi6 mi6 mi6 mi6 mi6 mi6 mi6 mi6 mi6 mi6 mi6 mi6 mi6 mi6 mi6 mi6 mi6 mi6 mi6 mi6 mi6 mi6 mi6 mi6 mi6 mi6 mi6 mi6 mi6 mi6 mi6 mi6 mi6 mi6 mi6 mi6 mi6 mi6 mi6 mi
Precipitation 0%0%0%0%0%0%0%0%0%0%0%0%0%0%0%0%0%0%0%0%0%0%0%0%0%0%0%0%0%0%0%0%0%0%0%0%0%0%0%0%0%0%0%0%0%0%0%0%
Humidity 39%38%36%34%31%27%27%27%28%29%21%17%15%14%14%13%12%11%10%10%11%14%22%23%22%22%22%22%23%25%25%26%27%27%20%13%12%10%10%10%11%12%13%15%17%20%30%33%
Dew Point 37°F35°F33°F30°F27°F24°F23°F23°F24°F28°F29°F29°F29°F30°F30°F29°F26°F24°F23°F22°F21°F24°F25°F22°F20°F19°F19°F20°F21°F22°F22°F23°F23°F26°F27°F23°F23°F21°F21°F24°F25°F27°F28°F29°F30°F31°F31°F30°F
Pressure 30.36"30.33"30.3"30.24"30.18"30.15"30.15"30.15"30.15"30.15"30.09"30.06"30.03"30.03"30"30"29.97"29.97"29.97"29.97"29.97"30"30.06"30.09"30.09"30.09"30.09"30.09"30.09"30.09"30.09"30.09"30.09"30.09"30.03"30"29.97"29.97"29.94"29.94"29.94"29.94"29.91"29.91"29.94"29.94"30"30.03"
Wind Speed 2.6 mph2.8 mph2.4 mph2.4 mph2 mph2.3 mph3 mph3.3 mph3.3 mph3.1 mph2.2 mph2.4 mph3.9 mph6.1 mph8.6 mph11 mph12.3 mph13.3 mph12.9 mph12 mph10.8 mph7.2 mph4 mph3.3 mph2.6 mph2.4 mph2.9 mph2.6 mph2.5 mph2.6 mph2.9 mph3.2 mph3.7 mph3.6 mph2.8 mph4 mph6.5 mph8.7 mph10.1 mph12.6 mph13.8 mph14 mph13.8 mph13 mph12.6 mph9.3 mph5.1 mph4.5 mph
Wind
Direction
197°
SSW
182°
S
196°
SSW
190°
S
190°
S
196°
SSW
190°
S
190°
S
185°
S
180°
S
186°
S
207°
SSW
215°
SW
220°
SW
227°
SW
229°
SW
234°
SW
237°
WSW
240°
WSW
242°
WSW
244°
WSW
247°
WSW
229°
SW
214°
SW
213°
SSW
193°
SSW
189°
S
194°
SSW
193°
SSW
195°
SSW
188°
S
185°
S
179°
S
179°
S
188°
S
206°
SSW
213°
SSW
215°
SW
221°
SW
229°
SW
228°
SW
227°
SW
225°
SW
224°
SW
226°
SW
232°
SW
225°
SW
209°
SSW

Daily Forecast

Date High Low Precip. Humidity
Today
Aug 2

Clear
82 °F
54 °F
0%
12%
Tuesday
Aug 3

Clear
84 °F
55 °F
0%
13%
Wednesday
Aug 4

Clear
84 °F
55 °F
0%
11%
Thursday
Aug 5

Clear
75 °F
46 °F
0%
8%
Friday
Aug 6

Clear
80 °F
44 °F
0%
6%
Saturday
Aug 7

Clear
80 °F
50 °F
0%
11%
Sunday
Aug 8

Clear
77 °F
51 °F
0%
14%
Monday
Aug 9

Clear
77 °F
49 °F
0%
16%
Tuesday
Aug 10

Clear
78 °F
48 °F
0%
15%
Wednesday
Aug 11

Clear
84 °F
52 °F
0%
15%
Thursday
Aug 12

Clear
86 °F
57 °F
0%
14%
Friday
Aug 13

Clear
90 °F
58 °F
0%
13%
Saturday
Aug 14

Clouds
91 °F
59 °F
0%
13%
Sunday
Aug 15

Clear
81 °F
49 °F
0%
12%
Monday
Aug 16

Clear
72 °F
46 °F
0%
13%
Tuesday
Aug 17

Clear
82 °F
45 °F
0%
12%

Temperature 8-14 Day Outlook



Precipitation 8-14 Day Outlook




Quick Links
Independence Lake News
Independence Lake Photos
Independence Lake Videos




About Us
Contact Us
Site Map
Search Site
Advertise With Us
   
IndependenceLake.LakesOnline.com
THE INDEPENDENCE LAKE WEBSITE

Copyright 2021, Lakes Online
Privacy    |    Legal